BEIDOU-3 M22

Last updated on Wed Jul 09 2025 00:02:32 GMT+0000 (Coordinated Universal Time)

1 44793U 19078A 25188.89626199 -.00000086 00000+0 00000+0 0 9999 2 44793 54.2475 311.9199 0005541 41.3860 318.6588 1.86232349 38239
UTC large
Height (km)
Speed (km/s)
/
Latitude / Longitude
Inclination (degrees)
Orbital Period (minutes)
Azimuth
Elevation
Range (km)
Doppler Factor

Next 0 passes for location: London (51.5072 / 0.1276)

Sorry there are no passes over London.